Location: Newark
(40.0667°N, 18.0500°E)
Time: 11:32:42
(UTC+00:00)

N. Korean satellite - Pass Details

Date: 30 January 2020
Orbit: 456 x 505 km, 97.2° (Epoch: 23 February)

Event Time Altitude Azimuth Distance (km) Brightness Sun altitude
Rises 03:36:18 0° 32° (NNE) 2,562 10.6 -27.4°
Reaches altitude 10° 03:39:07 10° 57° (ENE) 1,686 10.0 -26.8°
Maximum altitude 03:41:14 15° 93° (E) 1,414 9.8 -26.4°
Drops below altitude 10° 03:43:22 10° 129° (SE) 1,692 10.0 -26.0°
Sets 03:46:11 0° 153° (SSE) 2,577 10.6 -25.5°
